TimeAKST,TemperatureF,Dew PointF,Humidity,Sea Level PressureIn,VisibilityMPH,Wind Direction,Wind SpeedMPH,Gust SpeedMPH,PrecipitationIn,Events,Conditions,WindDirDegrees,DateUTC
12:10 AM,19.4,17.6,93,29.70,5.0,Calm,Calm,-,0.00,Rain,Light Freezing Rain,0,2012-11-10 09:10:00
12:45 AM,19.4,17.6,93,29.70,10.0,Calm,Calm,-,0.00,Rain,Light Freezing Rain,0,2012-11-10 09:45:00
12:53 AM,19.9,17.1,89,29.73,8.0,Calm,Calm,-,0.00,Rain,Light Freezing Rain,0,2012-11-10 09:53:00
1:35 AM,19.4,17.6,93,29.70,4.0,Calm,Calm,-,0.01,Rain,Light Freezing Rain,0,2012-11-10 10:35:00
1:53 AM,19.0,17.1,92,29.72,4.0,Calm,Calm,-,0.01,Rain,Light Freezing Rain,0,2012-11-10 10:53:00
2:48 AM,19.4,17.6,93,29.69,8.0,Calm,Calm,-,0.01,,Overcast,0,2012-11-10 11:48:00
3:25 AM,19.4,17.6,93,29.69,10.0,Calm,Calm,-,N/A,,Overcast,0,2012-11-10 12:25:00
3:53 AM,19.0,16.0,88,29.71,10.0,Calm,Calm,-,N/A,,Overcast,0,2012-11-10 12:53:00
4:34 AM,19.4,15.8,86,29.68,10.0,Calm,Calm,-,N/A,,Overcast,0,2012-11-10 13:34:00
4:53 AM,19.0,16.0,88,29.70,10.0,Calm,Calm,-,N/A,,Overcast,0,2012-11-10 13:53:00
5:53 AM,19.9,16.0,85,29.69,10.0,Calm,Calm,-,N/A,,Overcast,0,2012-11-10 14:53:00
6:01 AM,19.4,15.8,86,29.67,10.0,Calm,Calm,-,N/A,,Overcast,0,2012-11-10 15:01:00
6:53 AM,19.9,16.0,85,29.68,10.0,Calm,Calm,-,N/A,,Overcast,0,2012-11-10 15:53:00
7:53 AM,19.9,16.0,85,29.68,10.0,Calm,Calm,-,N/A,,Overcast,0,2012-11-10 16:53:00
8:07 AM,19.4,15.8,86,29.65,10.0,Calm,Calm,-,N/A,,Overcast,0,2012-11-10 17:07:00
8:53 AM,19.9,16.0,85,29.69,10.0,Calm,Calm,-,N/A,,Overcast,0,2012-11-10 17:53:00
9:53 AM,19.9,16.0,85,29.68,10.0,Calm,Calm,-,N/A,,Overcast,0,2012-11-10 18:53:00
10:53 AM,19.9,16.0,85,29.68,10.0,Calm,Calm,-,N/A,,Overcast,0,2012-11-10 19:53:00
11:53 AM,21.0,17.1,85,29.69,10.0,Calm,Calm,-,N/A,,Overcast,0,2012-11-10 20:53:00
12:53 PM,21.0,17.1,85,29.68,10.0,Calm,Calm,-,N/A,,Overcast,0,2012-11-10 21:53:00
1:53 PM,21.9,18.0,85,29.68,10.0,Calm,Calm,-,N/A,,Overcast,0,2012-11-10 22:53:00
2:16 PM,21.2,17.6,86,29.66,10.0,Calm,Calm,-,N/A,,Overcast,0,2012-11-10 23:16:00
2:53 PM,21.9,19.0,89,29.68,10.0,Calm,Calm,-,N/A,,Overcast,0,2012-11-10 23:53:00
3:53 PM,23.0,19.0,85,29.68,9.0,Calm,Calm,-,0.00,Snow,Light Snow,0,2012-11-11 00:53:00
4:53 PM,23.0,19.0,85,29.67,10.0,Calm,Calm,-,N/A,,Overcast,0,2012-11-11 01:53:00
5:53 PM,21.9,19.0,89,29.68,5.0,Calm,Calm,-,0.00,Snow,Light Snow,0,2012-11-11 02:53:00
6:07 PM,21.2,19.4,93,29.65,6.0,Calm,Calm,-,0.00,Snow,Light Snow,0,2012-11-11 03:07:00
6:53 PM,21.9,19.0,89,29.68,8.0,Calm,Calm,-,0.00,,Overcast,0,2012-11-11 03:53:00
7:13 PM,21.2,19.4,93,29.65,10.0,Calm,Calm,-,N/A,,Overcast,0,2012-11-11 04:13:00
7:53 PM,23.0,19.0,85,29.68,10.0,Calm,Calm,-,N/A,,Overcast,0,2012-11-11 04:53:00
8:53 PM,23.0,19.0,85,29.69,10.0,Calm,Calm,-,N/A,,Overcast,0,2012-11-11 05:53:00
9:53 PM,23.0,19.0,85,29.70,4.0,Calm,Calm,-,N/A,,Overcast,0,2012-11-11 06:53:00
10:34 PM,21.2,19.4,93,29.67,3.0,Calm,Calm,-,0.00,,Overcast,0,2012-11-11 07:34:00
10:53 PM,23.0,19.0,85,29.71,4.0,Calm,Calm,-,0.00,,Overcast,0,2012-11-11 07:53:00
11:11 PM,21.2,19.4,93,29.69,5.0,Calm,Calm,-,N/A,,Overcast,0,2012-11-11 08:11:00
11:53 PM,21.9,19.0,89,29.71,9.0,Calm,Calm,-,N/A,,Overcast,0,2012-11-11 08:53:00